owner,sensor,date,latitude,longitude,sea_water_turbidity,qcFlag 
NERRS,ioos:station:NOAA.NERRS:gndblwq:1,2014-06-01T00:00:00Z,30.3571,-88.4629,18.0,1111122 
NERRS,ioos:station:NOAA.NERRS:gndblwq:1,2014-06-01T01:00:00Z,30.3571,-88.4629,29.0,1111122 
NERRS,ioos:station:NOAA.NERRS:gndblwq:1,2014-06-01T02:00:00Z,30.3571,-88.4629,14.0,1111122 
NERRS,ioos:station:NOAA.NERRS:gndblwq:1,2014-06-01T03:00:00Z,30.3571,-88.4629,12.0,1111122 
NERRS,ioos:station:NOAA.NERRS:gndblwq:1,2014-06-01T04:00:00Z,30.3571,-88.4629,12.0,1111122 
NERRS,ioos:station:NOAA.NERRS:gndblwq:1,2014-06-01T05:00:00Z,30.3571,-88.4629,10.0,1111122 
NERRS,ioos:station:NOAA.NERRS:gndblwq:1,2014-06-01T06:00:00Z,30.3571,-88.4629,11.0,1111122 
NERRS,ioos:station:NOAA.NERRS:gndblwq:1,2014-06-01T07:00:00Z,30.3571,-88.4629,12.0,1111122 
NERRS,ioos:station:NOAA.NERRS:gndblwq:1,2014-06-01T08:00:00Z,30.3571,-88.4629,13.0,1111122 
NERRS,ioos:station:NOAA.NERRS:gndblwq:1,2014-06-01T09:00:00Z,30.3571,-88.4629,12.0,1111122 
NERRS,ioos:station:NOAA.NERRS:gndblwq:1,2014-06-01T10:00:00Z,30.3571,-88.4629,14.0,1111122 
NERRS,ioos:station:NOAA.NERRS:gndblwq:1,2014-06-01T11:00:00Z,30.3571,-88.4629,12.0,1111122 
NERRS,ioos:station:NOAA.NERRS:gndblwq:1,2014-06-01T12:00:00Z,30.3571,-88.4629,18.0,1111122 
NERRS,ioos:station:NOAA.NERRS:gndblwq:1,2014-06-01T13:00:00Z,30.3571,-88.4629,18.0,1111122 
NERRS,ioos:station:NOAA.NERRS:gndblwq:1,2014-06-01T14:00:00Z,30.3571,-88.4629,18.0,1111122 
NERRS,ioos:station:NOAA.NERRS:gndblwq:1,2014-06-01T15:00:00Z,30.3571,-88.4629,22.0,1111122 
NERRS,ioos:station:NOAA.NERRS:gndblwq:1,2014-06-01T16:00:00Z,30.3571,-88.4629,23.0,1111122 
NERRS,ioos:station:NOAA.NERRS:gndblwq:1,2014-06-01T17:00:00Z,30.3571,-88.4629,22.0,1111122 
NERRS,ioos:station:NOAA.NERRS:gndblwq:1,2014-06-01T18:00:00Z,30.3571,-88.4629,20.0,1111122 
NERRS,ioos:station:NOAA.NERRS:gndblwq:1,2014-06-01T19:00:00Z,30.3571,-88.4629,20.0,1111122 
NERRS,ioos:station:NOAA.NERRS:gndblwq:1,2014-06-01T20:00:00Z,30.3571,-88.4629,22.0,1111122 
NERRS,ioos:station:NOAA.NERRS:gndblwq:1,2014-06-01T21:00:00Z,30.3571,-88.4629,23.0,1111122 
NERRS,ioos:station:NOAA.NERRS:gndblwq:1,2014-06-01T22:00:00Z,30.3571,-88.4629,24.0,1111122 
NERRS,ioos:station:NOAA.NERRS:gndblwq:1,2014-06-01T23:00:00Z,30.3571,-88.4629,27.0,1111122 
NERRS,ioos:station:NOAA.NERRS:gndblwq:1,2014-06-02T00:00:00Z,30.3571,-88.4629,25.0,1111122 
NERRS,ioos:station:NOAA.NERRS:gndblwq:1,2014-06-02T01:00:00Z,30.3571,-88.4629,20.0,1111122 
NERRS,ioos:station:NOAA.NERRS:gndblwq:1,2014-06-02T02:00:00Z,30.3571,-88.4629,15.0,1111122 
NERRS,ioos:station:NOAA.NERRS:gndblwq:1,2014-06-02T03:00:00Z,30.3571,-88.4629,16.0,1111122 
NERRS,ioos:station:NOAA.NERRS:gndblwq:1,2014-06-02T04:00:00Z,30.3571,-88.4629,13.0,1111122 
NERRS,ioos:station:NOAA.NERRS:gndblwq:1,2014-06-02T05:00:00Z,30.3571,-88.4629,11.0,1111122 
NERRS,ioos:station:NOAA.NERRS:gndblwq:1,2014-06-02T06:00:00Z,30.3571,-88.4629,12.0,1111122 
NERRS,ioos:station:NOAA.NERRS:gndblwq:1,2014-06-02T07:00:00Z,30.3571,-88.4629,14.0,1111122 
NERRS,ioos:station:NOAA.NERRS:gndblwq:1,2014-06-02T08:00:00Z,30.3571,-88.4629,13.0,1111122 
NERRS,ioos:station:NOAA.NERRS:gndblwq:1,2014-06-02T09:00:00Z,30.3571,-88.4629,14.0,1111122 
NERRS,ioos:station:NOAA.NERRS:gndblwq:1,2014-06-02T10:00:00Z,30.3571,-88.4629,13.0,1111122 
NERRS,ioos:station:NOAA.NERRS:gndblwq:1,2014-06-02T11:00:00Z,30.3571,-88.4629,15.0,1111122 
NERRS,ioos:station:NOAA.NERRS:gndblwq:1,2014-06-02T12:00:00Z,30.3571,-88.4629,20.0,1111122 
NERRS,ioos:station:NOAA.NERRS:gndblwq:1,2014-06-02T13:00:00Z,30.3571,-88.4629,22.0,1111122 
NERRS,ioos:station:NOAA.NERRS:gndblwq:1,2014-06-02T14:00:00Z,30.3571,-88.4629,22.0,1111122 
NERRS,ioos:station:NOAA.NERRS:gndblwq:1,2014-06-02T15:00:00Z,30.3571,-88.4629,22.0,1111122 
NERRS,ioos:station:NOAA.NERRS:gndblwq:1,2014-06-02T16:00:00Z,30.3571,-88.4629,23.0,1111122 
NERRS,ioos:station:NOAA.NERRS:gndblwq:1,2014-06-02T17:00:00Z,30.3571,-88.4629,24.0,1111122 
NERRS,ioos:station:NOAA.NERRS:gndblwq:1,2014-06-02T18:00:00Z,30.3571,-88.4629,28.0,1111122 
NERRS,ioos:station:NOAA.NERRS:gndblwq:1,2014-06-02T19:00:00Z,30.3571,-88.4629,27.0,1111122 
NERRS,ioos:station:NOAA.NERRS:gndblwq:1,2014-06-02T20:00:00Z,30.3571,-88.4629,22.0,1111122 
NERRS,ioos:station:NOAA.NERRS:gndblwq:1,2014-06-02T21:00:00Z,30.3571,-88.4629,23.0,1111122 
NERRS,ioos:station:NOAA.NERRS:gndblwq:1,2014-06-02T22:00:00Z,30.3571,-88.4629,24.0,1111122 
NERRS,ioos:station:NOAA.NERRS:gndblwq:1,2014-06-02T23:00:00Z,30.3571,-88.4629,29.0,1111122 
NERRS,ioos:station:NOAA.NERRS:gndblwq:1,2014-06-03T00:00:00Z,30.3571,-88.4629,23.0,1111122 
NERRS,ioos:station:NOAA.NERRS:gndblwq:1,2014-06-03T01:00:00Z,30.3571,-88.4629,25.0,1111122 
NERRS,ioos:station:NOAA.NERRS:gndblwq:1,2014-06-03T02:00:00Z,30.3571,-88.4629,21.0,1111122 
NERRS,ioos:station:NOAA.NERRS:gndblwq:1,2014-06-03T03:00:00Z,30.3571,-88.4629,20.0,1111122 
NERRS,ioos:station:NOAA.NERRS:gndblwq:1,2014-06-03T04:00:00Z,30.3571,-88.4629,14.0,1111122 
NERRS,ioos:station:NOAA.NERRS:gndblwq:1,2014-06-03T05:00:00Z,30.3571,-88.4629,15.0,1111122 
NERRS,ioos:station:NOAA.NERRS:gndblwq:1,2014-06-03T06:00:00Z,30.3571,-88.4629,13.0,1111122 
NERRS,ioos:station:NOAA.NERRS:gndblwq:1,2014-06-03T07:00:00Z,30.3571,-88.4629,15.0,1111122 
NERRS,ioos:station:NOAA.NERRS:gndblwq:1,2014-06-03T08:00:00Z,30.3571,-88.4629,16.0,1111122 
NERRS,ioos:station:NOAA.NERRS:gndblwq:1,2014-06-03T09:00:00Z,30.3571,-88.4629,18.0,1111122 
NERRS,ioos:station:NOAA.NERRS:gndblwq:1,2014-06-03T10:00:00Z,30.3571,-88.4629,18.0,1111122 
NERRS,ioos:station:NOAA.NERRS:gndblwq:1,2014-06-03T11:00:00Z,30.3571,-88.4629,20.0,1111122 
NERRS,ioos:station:NOAA.NERRS:gndblwq:1,2014-06-03T12:00:00Z,30.3571,-88.4629,17.0,1111122 
NERRS,ioos:station:NOAA.NERRS:gndblwq:1,2014-06-03T13:00:00Z,30.3571,-88.4629,28.0,1111122 
NERRS,ioos:station:NOAA.NERRS:gndblwq:1,2014-06-03T14:00:00Z,30.3571,-88.4629,22.0,1111122 
NERRS,ioos:station:NOAA.NERRS:gndblwq:1,2014-06-03T15:00:00Z,30.3571,-88.4629,29.0,1111122 
NERRS,ioos:station:NOAA.NERRS:gndblwq:1,2014-06-03T16:00:00Z,30.3571,-88.4629,25.0,1111122 
NERRS,ioos:station:NOAA.NERRS:gndblwq:1,2014-06-03T17:00:00Z,30.3571,-88.4629,25.0,1111122 
NERRS,ioos:station:NOAA.NERRS:gndblwq:1,2014-06-03T18:00:00Z,30.3571,-88.4629,26.0,1111122 
NERRS,ioos:station:NOAA.NERRS:gndblwq:1,2014-06-03T19:00:00Z,30.3571,-88.4629,25.0,1111122 
NERRS,ioos:station:NOAA.NERRS:gndblwq:1,2014-06-03T20:00:00Z,30.3571,-88.4629,24.0,1111122 
NERRS,ioos:station:NOAA.NERRS:gndblwq:1,2014-06-03T21:00:00Z,30.3571,-88.4629,26.0,1111122 
NERRS,ioos:station:NOAA.NERRS:gndblwq:1,2014-06-03T22:00:00Z,30.3571,-88.4629,26.0,1111122 
NERRS,ioos:station:NOAA.NERRS:gndblwq:1,2014-06-03T23:00:00Z,30.3571,-88.4629,29.0,1111122 
NERRS,ioos:station:NOAA.NERRS:gndblwq:1,2014-06-04T00:00:00Z,30.3571,-88.4629,27.0,1111122 
NERRS,ioos:station:NOAA.NERRS:gndblwq:1,2014-06-04T01:00:00Z,30.3571,-88.4629,26.0,1111122 
NERRS,ioos:station:NOAA.NERRS:gndblwq:1,2014-06-04T02:00:00Z,30.3571,-88.4629,25.0,1111122 
NERRS,ioos:station:NOAA.NERRS:gndblwq:1,2014-06-04T03:00:00Z,30.3571,-88.4629,23.0,1111122 
NERRS,ioos:station:NOAA.NERRS:gndblwq:1,2014-06-04T04:00:00Z,30.3571,-88.4629,22.0,1111122 
NERRS,ioos:station:NOAA.NERRS:gndblwq:1,2014-06-04T05:00:00Z,30.3571,-88.4629,18.0,1111122 
NERRS,ioos:station:NOAA.NERRS:gndblwq:1,2014-06-04T06:00:00Z,30.3571,-88.4629,18.0,1111122 
NERRS,ioos:station:NOAA.NERRS:gndblwq:1,2014-06-04T07:00:00Z,30.3571,-88.4629,19.0,1111122 
NERRS,ioos:station:NOAA.NERRS:gndblwq:1,2014-06-04T08:00:00Z,30.3571,-88.4629,20.0,1111122 
NERRS,ioos:station:NOAA.NERRS:gndblwq:1,2014-06-04T09:00:00Z,30.3571,-88.4629,21.0,1111122 
NERRS,ioos:station:NOAA.NERRS:gndblwq:1,2014-06-04T10:00:00Z,30.3571,-88.4629,23.0,1111122 
NERRS,ioos:station:NOAA.NERRS:gndblwq:1,2014-06-04T11:00:00Z,30.3571,-88.4629,25.0,1111122 
NERRS,ioos:station:NOAA.NERRS:gndblwq:1,2014-06-04T12:00:00Z,30.3571,-88.4629,26.0,1111122 
NERRS,ioos:station:NOAA.NERRS:gndblwq:1,2014-06-04T13:00:00Z,30.3571,-88.4629,29.0,1111122 
NERRS,ioos:station:NOAA.NERRS:gndblwq:1,2014-06-04T14:00:00Z,30.3571,-88.4629,34.0,1111122 
NERRS,ioos:station:NOAA.NERRS:gndblwq:1,2014-06-04T15:00:00Z,30.3571,-88.4629,30.0,1111122 
NERRS,ioos:station:NOAA.NERRS:gndblwq:1,2014-06-04T16:00:00Z,30.3571,-88.4629,39.0,1111122 
NERRS,ioos:station:NOAA.NERRS:gndblwq:1,2014-06-04T17:00:00Z,30.3571,-88.4629,34.0,1111122 
NERRS,ioos:station:NOAA.NERRS:gndblwq:1,2014-06-04T18:00:00Z,30.3571,-88.4629,32.0,1111122 
NERRS,ioos:station:NOAA.NERRS:gndblwq:1,2014-06-04T19:00:00Z,30.3571,-88.4629,34.0,1111122 
NERRS,ioos:station:NOAA.NERRS:gndblwq:1,2014-06-04T20:00:00Z,30.3571,-88.4629,28.0,1111122 
NERRS,ioos:station:NOAA.NERRS:gndblwq:1,2014-06-04T21:00:00Z,30.3571,-88.4629,29.0,1111122 
NERRS,ioos:station:NOAA.NERRS:gndblwq:1,2014-06-04T22:00:00Z,30.3571,-88.4629,33.0,1111122 
NERRS,ioos:station:NOAA.NERRS:gndblwq:1,2014-06-04T23:00:00Z,30.3571,-88.4629,37.0,1111122 
NERRS,ioos:station:NOAA.NERRS:gndblwq:1,2014-06-05T00:00:00Z,30.3571,-88.4629,41.0,1111122 
NERRS,ioos:station:NOAA.NERRS:gndblwq:1,2014-06-05T01:00:00Z,30.3571,-88.4629,38.0,1111122 
NERRS,ioos:station:NOAA.NERRS:gndblwq:1,2014-06-05T02:00:00Z,30.3571,-88.4629,42.0,1111122 
NERRS,ioos:station:NOAA.NERRS:gndblwq:1,2014-06-05T03:00:00Z,30.3571,-88.4629,47.0,1111122 
NERRS,ioos:station:NOAA.NERRS:gndblwq:1,2014-06-05T04:00:00Z,30.3571,-88.4629,41.0,1111122 
NERRS,ioos:station:NOAA.NERRS:gndblwq:1,2014-06-05T05:00:00Z,30.3571,-88.4629,43.0,1111122 
NERRS,ioos:station:NOAA.NERRS:gndblwq:1,2014-06-05T06:00:00Z,30.3571,-88.4629,50.0,1111122 
NERRS,ioos:station:NOAA.NERRS:gndblwq:1,2014-06-05T07:00:00Z,30.3571,-88.4629,39.0,1111122 
NERRS,ioos:station:NOAA.NERRS:gndblwq:1,2014-06-05T08:00:00Z,30.3571,-88.4629,40.0,1111122 
NERRS,ioos:station:NOAA.NERRS:gndblwq:1,2014-06-05T09:00:00Z,30.3571,-88.4629,46.0,1111122 
NERRS,ioos:station:NOAA.NERRS:gndblwq:1,2014-06-05T10:00:00Z,30.3571,-88.4629,45.0,1111122 
NERRS,ioos:station:NOAA.NERRS:gndblwq:1,2014-06-05T11:00:00Z,30.3571,-88.4629,42.0,1111122 
NERRS,ioos:station:NOAA.NERRS:gndblwq:1,2014-06-05T12:00:00Z,30.3571,-88.4629,47.0,1111122 
NERRS,ioos:station:NOAA.NERRS:gndblwq:1,2014-06-05T13:00:00Z,30.3571,-88.4629,42.0,1111122 
NERRS,ioos:station:NOAA.NERRS:gndblwq:1,2014-06-05T14:00:00Z,30.3571,-88.4629,37.0,1111122 
NERRS,ioos:station:NOAA.NERRS:gndblwq:1,2014-06-05T15:00:00Z,30.3571,-88.4629,48.0,1111122 
NERRS,ioos:station:NOAA.NERRS:gndblwq:1,2014-06-05T16:00:00Z,30.3571,-88.4629,45.0,1111122 
NERRS,ioos:station:NOAA.NERRS:gndblwq:1,2014-06-05T17:00:00Z,30.3571,-88.4629,51.0,1111122 
NERRS,ioos:station:NOAA.NERRS:gndblwq:1,2014-06-05T18:00:00Z,30.3571,-88.4629,49.0,1111122 
NERRS,ioos:station:NOAA.NERRS:gndblwq:1,2014-06-05T19:00:00Z,30.3571,-88.4629,47.0,1111122 
NERRS,ioos:station:NOAA.NERRS:gndblwq:1,2014-06-05T20:00:00Z,30.3571,-88.4629,57.0,1111122 
NERRS,ioos:station:NOAA.NERRS:gndblwq:1,2014-06-05T21:00:00Z,30.3571,-88.4629,56.0,1111122 
NERRS,ioos:station:NOAA.NERRS:gndblwq:1,2014-06-05T22:00:00Z,30.3571,-88.4629,76.0,1111122 
NERRS,ioos:station:NOAA.NERRS:gndblwq:1,2014-06-05T23:00:00Z,30.3571,-88.4629,51.0,1111122 
NERRS,ioos:station:NOAA.NERRS:gndblwq:1,2014-06-06T00:00:00Z,30.3571,-88.4629,55.0,1111122 
NERRS,ioos:station:NOAA.NERRS:gndblwq:1,2014-06-06T01:00:00Z,30.3571,-88.4629,73.0,1111122 
NERRS,ioos:station:NOAA.NERRS:gndblwq:1,2014-06-06T02:00:00Z,30.3571,-88.4629,45.0,1111122 
NERRS,ioos:station:NOAA.NERRS:gndblwq:1,2014-06-06T03:00:00Z,30.3571,-88.4629,64.0,1111122 
NERRS,ioos:station:NOAA.NERRS:gndblwq:1,2014-06-06T04:00:00Z,30.3571,-88.4629,72.0,1111122 
NERRS,ioos:station:NOAA.NERRS:gndblwq:1,2014-06-06T05:00:00Z,30.3571,-88.4629,75.0,1111122 
NERRS,ioos:station:NOAA.NERRS:gndblwq:1,2014-06-06T06:00:00Z,30.3571,-88.4629,63.0,1111122 
NERRS,ioos:station:NOAA.NERRS:gndblwq:1,2014-06-06T07:00:00Z,30.3571,-88.4629,65.0,1111122 
NERRS,ioos:station:NOAA.NERRS:gndblwq:1,2014-06-06T08:00:00Z,30.3571,-88.4629,55.0,1111122 
NERRS,ioos:station:NOAA.NERRS:gndblwq:1,2014-06-06T09:00:00Z,30.3571,-88.4629,78.0,1111122 
NERRS,ioos:station:NOAA.NERRS:gndblwq:1,2014-06-06T10:00:00Z,30.3571,-88.4629,53.0,1111122 
NERRS,ioos:station:NOAA.NERRS:gndblwq:1,2014-06-06T11:00:00Z,30.3571,-88.4629,69.0,1111122 
NERRS,ioos:station:NOAA.NERRS:gndblwq:1,2014-06-06T12:00:00Z,30.3571,-88.4629,53.0,1111122 
NERRS,ioos:station:NOAA.NERRS:gndblwq:1,2014-06-06T13:00:00Z,30.3571,-88.4629,62.0,1111122 
NERRS,ioos:station:NOAA.NERRS:gndblwq:1,2014-06-06T14:00:00Z,30.3571,-88.4629,68.0,1111122 
NERRS,ioos:station:NOAA.NERRS:gndblwq:1,2014-06-06T15:00:00Z,30.3571,-88.4629,53.0,1111122 
NERRS,ioos:station:NOAA.NERRS:gndblwq:1,2014-06-06T16:00:00Z,30.3571,-88.4629,66.0,1111122 
NERRS,ioos:station:NOAA.NERRS:gndblwq:1,2014-06-06T17:00:00Z,30.3571,-88.4629,87.0,1111122 
NERRS,ioos:station:NOAA.NERRS:gndblwq:1,2014-06-06T18:00:00Z,30.3571,-88.4629,65.0,1111122 
NERRS,ioos:station:NOAA.NERRS:gndblwq:1,2014-06-06T19:00:00Z,30.3571,-88.4629,75.0,1111122 
NERRS,ioos:station:NOAA.NERRS:gndblwq:1,2014-06-06T20:00:00Z,30.3571,-88.4629,84.0,1111122 
NERRS,ioos:station:NOAA.NERRS:gndblwq:1,2014-06-06T21:00:00Z,30.3571,-88.4629,82.0,1111122 
NERRS,ioos:station:NOAA.NERRS:gndblwq:1,2014-06-06T22:00:00Z,30.3571,-88.4629,75.0,1111122 
NERRS,ioos:station:NOAA.NERRS:gndblwq:1,2014-06-06T23:00:00Z,30.3571,-88.4629,84.0,1111122 
NERRS,ioos:station:NOAA.NERRS:gndblwq:1,2014-06-07T00:00:00Z,30.3571,-88.4629,79.0,1111122 
NERRS,ioos:station:NOAA.NERRS:gndblwq:1,2014-06-07T01:00:00Z,30.3571,-88.4629,53.0,1111122 
NERRS,ioos:station:NOAA.NERRS:gndblwq:1,2014-06-07T02:00:00Z,30.3571,-88.4629,95.0,1111122 
NERRS,ioos:station:NOAA.NERRS:gndblwq:1,2014-06-07T03:00:00Z,30.3571,-88.4629,77.0,1111122 
NERRS,ioos:station:NOAA.NERRS:gndblwq:1,2014-06-07T04:00:00Z,30.3571,-88.4629,64.0,1111122 
NERRS,ioos:station:NOAA.NERRS:gndblwq:1,2014-06-07T05:00:00Z,30.3571,-88.4629,76.0,1111122 
NERRS,ioos:station:NOAA.NERRS:gndblwq:1,2014-06-07T06:00:00Z,30.3571,-88.4629,68.0,1111122 
NERRS,ioos:station:NOAA.NERRS:gndblwq:1,2014-06-07T07:00:00Z,30.3571,-88.4629,83.0,1111122 
NERRS,ioos:station:NOAA.NERRS:gndblwq:1,2014-06-07T08:00:00Z,30.3571,-88.4629,98.0,1111122 
NERRS,ioos:station:NOAA.NERRS:gndblwq:1,2014-06-07T09:00:00Z,30.3571,-88.4629,76.0,1111122 
NERRS,ioos:station:NOAA.NERRS:gndblwq:1,2014-06-07T10:00:00Z,30.3571,-88.4629,93.0,1111122 
NERRS,ioos:station:NOAA.NERRS:gndblwq:1,2014-06-07T11:00:00Z,30.3571,-88.4629,71.0,1111122 
NERRS,ioos:station:NOAA.NERRS:gndblwq:1,2014-06-07T12:00:00Z,30.3571,-88.4629,82.0,1111122 
NERRS,ioos:station:NOAA.NERRS:gndblwq:1,2014-06-07T13:00:00Z,30.3571,-88.4629,75.0,1111122 
NERRS,ioos:station:NOAA.NERRS:gndblwq:1,2014-06-07T14:00:00Z,30.3571,-88.4629,62.0,1111122 
NERRS,ioos:station:NOAA.NERRS:gndblwq:1,2014-06-07T15:00:00Z,30.3571,-88.4629,84.0,1111122 
NERRS,ioos:station:NOAA.NERRS:gndblwq:1,2014-06-07T16:00:00Z,30.3571,-88.4629,29.0,1111122 
NERRS,ioos:station:NOAA.NERRS:gndblwq:1,2014-06-07T17:00:00Z,30.3571,-88.4629,26.0,1111122 
NERRS,ioos:station:NOAA.NERRS:gndblwq:1,2014-06-07T18:00:00Z,30.3571,-88.4629,30.0,1111122 
NERRS,ioos:station:NOAA.NERRS:gndblwq:1,2014-06-07T19:00:00Z,30.3571,-88.4629,69.0,1111122 
NERRS,ioos:station:NOAA.NERRS:gndblwq:1,2014-06-07T20:00:00Z,30.3571,-88.4629,51.0,1111122 
NERRS,ioos:station:NOAA.NERRS:gndblwq:1,2014-06-07T21:00:00Z,30.3571,-88.4629,73.0,1111122 
NERRS,ioos:station:NOAA.NERRS:gndblwq:1,2014-06-07T22:00:00Z,30.3571,-88.4629,52.0,1111122 
NERRS,ioos:station:NOAA.NERRS:gndblwq:1,2014-06-07T23:00:00Z,30.3571,-88.4629,62.0,1111122 
NERRS,ioos:station:NOAA.NERRS:gndblwq:1,2014-06-08T00:00:00Z,30.3571,-88.4629,61.0,1111122 
NERRS,ioos:station:NOAA.NERRS:gndblwq:1,2014-06-08T01:00:00Z,30.3571,-88.4629,79.0,1111122 
NERRS,ioos:station:NOAA.NERRS:gndblwq:1,2014-06-08T02:00:00Z,30.3571,-88.4629,64.0,1111122 
NERRS,ioos:station:NOAA.NERRS:gndblwq:1,2014-06-08T03:00:00Z,30.3571,-88.4629,59.0,1111122 
NERRS,ioos:station:NOAA.NERRS:gndblwq:1,2014-06-08T04:00:00Z,30.3571,-88.4629,69.0,1111122 
NERRS,ioos:station:NOAA.NERRS:gndblwq:1,2014-06-08T05:00:00Z,30.3571,-88.4629,80.0,1111122 
NERRS,ioos:station:NOAA.NERRS:gndblwq:1,2014-06-08T06:00:00Z,30.3571,-88.4629,83.0,1111122 
NERRS,ioos:station:NOAA.NERRS:gndblwq:1,2014-06-08T07:00:00Z,30.3571,-88.4629,78.0,1111122 
NERRS,ioos:station:NOAA.NERRS:gndblwq:1,2014-06-08T08:00:00Z,30.3571,-88.4629,73.0,1111122 
NERRS,ioos:station:NOAA.NERRS:gndblwq:1,2014-06-08T09:00:00Z,30.3571,-88.4629,74.0,1111122 
NERRS,ioos:station:NOAA.NERRS:gndblwq:1,2014-06-08T10:00:00Z,30.3571,-88.4629,71.0,1111122 
NERRS,ioos:station:NOAA.NERRS:gndblwq:1,2014-06-08T11:00:00Z,30.3571,-88.4629,46.0,1111122 
NERRS,ioos:station:NOAA.NERRS:gndblwq:1,2014-06-08T12:00:00Z,30.3571,-88.4629,57.0,1111122 
NERRS,ioos:station:NOAA.NERRS:gndblwq:1,2014-06-08T13:00:00Z,30.3571,-88.4629,22.0,1111122 
NERRS,ioos:station:NOAA.NERRS:gndblwq:1,2014-06-08T14:00:00Z,30.3571,-88.4629,22.0,1111122 
NERRS,ioos:station:NOAA.NERRS:gndblwq:1,2014-06-08T15:00:00Z,30.3571,-88.4629,30.0,1111122 
NERRS,ioos:station:NOAA.NERRS:gndblwq:1,2014-06-08T16:00:00Z,30.3571,-88.4629,29.0,1111122 
NERRS,ioos:station:NOAA.NERRS:gndblwq:1,2014-06-08T17:00:00Z,30.3571,-88.4629,30.0,1111122 
NERRS,ioos:station:NOAA.NERRS:gndblwq:1,2014-06-08T18:00:00Z,30.3571,-88.4629,31.0,1111122 
NERRS,ioos:station:NOAA.NERRS:gndblwq:1,2014-06-08T19:00:00Z,30.3571,-88.4629,32.0,1111122 
NERRS,ioos:station:NOAA.NERRS:gndblwq:1,2014-06-08T20:00:00Z,30.3571,-88.4629,32.0,1111122 
NERRS,ioos:station:NOAA.NERRS:gndblwq:1,2014-06-08T21:00:00Z,30.3571,-88.4629,34.0,1111122 
NERRS,ioos:station:NOAA.NERRS:gndblwq:1,2014-06-08T22:00:00Z,30.3571,-88.4629,41.0,1111122 
NERRS,ioos:station:NOAA.NERRS:gndblwq:1,2014-06-08T23:00:00Z,30.3571,-88.4629,35.0,1111122 
NERRS,ioos:station:NOAA.NERRS:gndblwq:1,2014-06-09T00:00:00Z,30.3571,-88.4629,37.0,1111122 
NERRS,ioos:station:NOAA.NERRS:gndblwq:1,2014-06-09T01:00:00Z,30.3571,-88.4629,40.0,1111122 
NERRS,ioos:station:NOAA.NERRS:gndblwq:1,2014-06-09T02:00:00Z,30.3571,-88.4629,41.0,1111122 
NERRS,ioos:station:NOAA.NERRS:gndblwq:1,2014-06-09T03:00:00Z,30.3571,-88.4629,34.0,1111122 
NERRS,ioos:station:NOAA.NERRS:gndblwq:1,2014-06-09T04:00:00Z,30.3571,-88.4629,37.0,1111122 
NERRS,ioos:station:NOAA.NERRS:gndblwq:1,2014-06-09T05:00:00Z,30.3571,-88.4629,29.0,1111122 
NERRS,ioos:station:NOAA.NERRS:gndblwq:1,2014-06-09T06:00:00Z,30.3571,-88.4629,30.0,1111122 
NERRS,ioos:station:NOAA.NERRS:gndblwq:1,2014-06-09T07:00:00Z,30.3571,-88.4629,33.0,1111122 
NERRS,ioos:station:NOAA.NERRS:gndblwq:1,2014-06-09T08:00:00Z,30.3571,-88.4629,35.0,1111122 
NERRS,ioos:station:NOAA.NERRS:gndblwq:1,2014-06-09T09:00:00Z,30.3571,-88.4629,37.0,1111122 
NERRS,ioos:station:NOAA.NERRS:gndblwq:1,2014-06-09T10:00:00Z,30.3571,-88.4629,37.0,1111122 
NERRS,ioos:station:NOAA.NERRS:gndblwq:1,2014-06-09T11:00:00Z,30.3571,-88.4629,33.0,1111122 
NERRS,ioos:station:NOAA.NERRS:gndblwq:1,2014-06-09T12:00:00Z,30.3571,-88.4629,32.0,1111122 
NERRS,ioos:station:NOAA.NERRS:gndblwq:1,2014-06-09T13:00:00Z,30.3571,-88.4629,40.0,1111122 
NERRS,ioos:station:NOAA.NERRS:gndblwq:1,2014-06-09T14:00:00Z,30.3571,-88.4629,40.0,1111122 
NERRS,ioos:station:NOAA.NERRS:gndblwq:1,2014-06-09T15:00:00Z,30.3571,-88.4629,41.0,1111122 
NERRS,ioos:station:NOAA.NERRS:gndblwq:1,2014-06-09T16:00:00Z,30.3571,-88.4629,40.0,1111122 
NERRS,ioos:station:NOAA.NERRS:gndblwq:1,2014-06-09T17:00:00Z,30.3571,-88.4629,48.0,1111122 
NERRS,ioos:station:NOAA.NERRS:gndblwq:1,2014-06-09T18:00:00Z,30.3571,-88.4629,46.0,1111122 
NERRS,ioos:station:NOAA.NERRS:gndblwq:1,2014-06-09T19:00:00Z,30.3571,-88.4629,44.0,1111122 
NERRS,ioos:station:NOAA.NERRS:gndblwq:1,2014-06-09T20:00:00Z,30.3571,-88.4629,42.0,1111122 
NERRS,ioos:station:NOAA.NERRS:gndblwq:1,2014-06-09T21:00:00Z,30.3571,-88.4629,42.0,1111122 
NERRS,ioos:station:NOAA.NERRS:gndblwq:1,2014-06-09T22:00:00Z,30.3571,-88.4629,55.0,1111122 
NERRS,ioos:station:NOAA.NERRS:gndblwq:1,2014-06-09T23:00:00Z,30.3571,-88.4629,38.0,1111122 
NERRS,ioos:station:NOAA.NERRS:gndblwq:1,2014-06-10T00:00:00Z,30.3571,-88.4629,45.0,1111122 
NERRS,ioos:station:NOAA.NERRS:gndblwq:1,2014-06-10T01:00:00Z,30.3571,-88.4629,37.0,1111122 
NERRS,ioos:station:NOAA.NERRS:gndblwq:1,2014-06-10T02:00:00Z,30.3571,-88.4629,38.0,1111122 
NERRS,ioos:station:NOAA.NERRS:gndblwq:1,2014-06-10T03:00:00Z,30.3571,-88.4629,37.0,1111122 
NERRS,ioos:station:NOAA.NERRS:gndblwq:1,2014-06-10T04:00:00Z,30.3571,-88.4629,39.0,1111122 
NERRS,ioos:station:NOAA.NERRS:gndblwq:1,2014-06-10T05:00:00Z,30.3571,-88.4629,33.0,1111122 
NERRS,ioos:station:NOAA.NERRS:gndblwq:1,2014-06-10T06:00:00Z,30.3571,-88.4629,34.0,1111122 
NERRS,ioos:station:NOAA.NERRS:gndblwq:1,2014-06-10T07:00:00Z,30.3571,-88.4629,36.0,1111122 
NERRS,ioos:station:NOAA.NERRS:gndblwq:1,2014-06-10T08:00:00Z,30.3571,-88.4629,89.0,1111122 
NERRS,ioos:station:NOAA.NERRS:gndblwq:1,2014-06-10T09:00:00Z,30.3571,-88.4629,76.0,1111122 
NERRS,ioos:station:NOAA.NERRS:gndblwq:1,2014-06-10T10:00:00Z,30.3571,-88.4629,38.0,1111122 
NERRS,ioos:station:NOAA.NERRS:gndblwq:1,2014-06-10T11:00:00Z,30.3571,-88.4629,40.0,1111122 
NERRS,ioos:station:NOAA.NERRS:gndblwq:1,2014-06-10T12:00:00Z,30.3571,-88.4629,38.0,1111122 
NERRS,ioos:station:NOAA.NERRS:gndblwq:1,2014-06-10T13:00:00Z,30.3571,-88.4629,34.0,1111122 
NERRS,ioos:station:NOAA.NERRS:gndblwq:1,2014-06-10T14:00:00Z,30.3571,-88.4629,41.0,1111122 
NERRS,ioos:station:NOAA.NERRS:gndblwq:1,2014-06-10T15:00:00Z,30.3571,-88.4629,34.0,1111122 
NERRS,ioos:station:NOAA.NERRS:gndblwq:1,2014-06-10T16:00:00Z,30.3571,-88.4629,38.0,1111122 
NERRS,ioos:station:NOAA.NERRS:gndblwq:1,2014-06-10T17:00:00Z,30.3571,-88.4629,40.0,1111122 
NERRS,ioos:station:NOAA.NERRS:gndblwq:1,2014-06-10T18:00:00Z,30.3571,-88.4629,32.0,1111122 
NERRS,ioos:station:NOAA.NERRS:gndblwq:1,2014-06-10T19:00:00Z,30.3571,-88.4629,40.0,1111122 
NERRS,ioos:station:NOAA.NERRS:gndblwq:1,2014-06-10T20:00:00Z,30.3571,-88.4629,57.0,1111122 
NERRS,ioos:station:NOAA.NERRS:gndblwq:1,2014-06-10T21:00:00Z,30.3571,-88.4629,49.0,1111122 
NERRS,ioos:station:NOAA.NERRS:gndblwq:1,2014-06-10T22:00:00Z,30.3571,-88.4629,50.0,1111122 
NERRS,ioos:station:NOAA.NERRS:gndblwq:1,2014-06-10T23:00:00Z,30.3571,-88.4629,50.0,1111122 
NERRS,ioos:station:NOAA.NERRS:gndblwq:1,2014-06-11T00:00:00Z,30.3571,-88.4629,54.0,1111122 
NERRS,ioos:station:NOAA.NERRS:gndblwq:1,2014-06-11T01:00:00Z,30.3571,-88.4629,61.0,1111122 
NERRS,ioos:station:NOAA.NERRS:gndblwq:1,2014-06-11T02:00:00Z,30.3571,-88.4629,53.0,1111122 
NERRS,ioos:station:NOAA.NERRS:gndblwq:1,2014-06-11T03:00:00Z,30.3571,-88.4629,61.0,1111122 
NERRS,ioos:station:NOAA.NERRS:gndblwq:1,2014-06-11T04:00:00Z,30.3571,-88.4629,76.0,1111122 
NERRS,ioos:station:NOAA.NERRS:gndblwq:1,2014-06-11T05:00:00Z,30.3571,-88.4629,60.0,1111122 
NERRS,ioos:station:NOAA.NERRS:gndblwq:1,2014-06-11T06:00:00Z,30.3571,-88.4629,57.0,1111122 
NERRS,ioos:station:NOAA.NERRS:gndblwq:1,2014-06-11T07:00:00Z,30.3571,-88.4629,66.0,1111122 
NERRS,ioos:station:NOAA.NERRS:gndblwq:1,2014-06-11T08:00:00Z,30.3571,-88.4629,85.0,1111122 
NERRS,ioos:station:NOAA.NERRS:gndblwq:1,2014-06-11T09:00:00Z,30.3571,-88.4629,82.0,1111122 
NERRS,ioos:station:NOAA.NERRS:gndblwq:1,2014-06-11T10:00:00Z,30.3571,-88.4629,67.0,1111122 
NERRS,ioos:station:NOAA.NERRS:gndblwq:1,2014-06-11T11:00:00Z,30.3571,-88.4629,58.0,1111122 
NERRS,ioos:station:NOAA.NERRS:gndblwq:1,2014-06-11T12:00:00Z,30.3571,-88.4629,61.0,1111122 
NERRS,ioos:station:NOAA.NERRS:gndblwq:1,2014-06-11T13:00:00Z,30.3571,-88.4629,62.0,1111122 
NERRS,ioos:station:NOAA.NERRS:gndblwq:1,2014-06-11T14:00:00Z,30.3571,-88.4629,60.0,1111122 
NERRS,ioos:station:NOAA.NERRS:gndblwq:1,2014-06-11T15:00:00Z,30.3571,-88.4629,64.0,1111122 
NERRS,ioos:station:NOAA.NERRS:gndblwq:1,2014-06-11T16:00:00Z,30.3571,-88.4629,61.0,1111122 
NERRS,ioos:station:NOAA.NERRS:gndblwq:1,2014-06-11T17:00:00Z,30.3571,-88.4629,52.0,1111122 
NERRS,ioos:station:NOAA.NERRS:gndblwq:1,2014-06-11T18:00:00Z,30.3571,-88.4629,69.0,1111122 
NERRS,ioos:station:NOAA.NERRS:gndblwq:1,2014-06-11T19:00:00Z,30.3571,-88.4629,58.0,1111122 